sat.trackr.live / text

‹ back to catalog

THAICOM 8

NORAD 41552 · 2016-031A

PAYLOAD ACTIVE UNKNOWN

§ Identity

Operator
Country
THAI
Launch date
2016-05-27
Launch site
AFETR
Launch vehicle
Mass (kg)
RCS (m²)
8.01

Purposes: comms

External: N2YO · Heavens-Above · Gunter

§ Orbital elements

Epoch: 2026-05-25T04:07:00.115968Z

Period
1,436.09 min
Inclination
0.0623°
Eccentricity
0.0003884
Mean motion
1.00272334 rev/d
Perigee alt
35,770.1 km
Apogee alt
35,802.8 km
Semi-major
42,164.6 km
B*
0.0000e+0
RAAN
44.1050°
Arg perigee
1.2376°
Mean anomaly
337.7063°
Rev number
3,648

§ Raw data

THAICOM 81 41552U 16031A   26145.17152912 -.00000124  00000+0  00000+0 0  99902 41552   0.0623  44.1050 0003884   1.2376 337.7063  1.00272334 36488

JSON: /api/v1/satellites/41552 · /tle

For live sub-satellite position, see the globe view (requires WebGL).

§ Visibility from observer

Set your observer location to see the next 7 days of passes ≥ 10°. The values pass through the URL so the page stays shareable.

No JS? Fill the form by hand. The geolocation button needs JavaScript.